TimeCDT,TemperatureF,Dew PointF,Humidity,Sea Level PressureIn,VisibilityMPH,Wind Direction,Wind SpeedMPH,Gust SpeedMPH,PrecipitationIn,Events,Conditions,WindDirDegrees,DateUTC
12:15 AM,35.6,35.6,100,30.24,5.0,Calm,Calm,-,N/A,,Clear,0,2012-10-11 05:15:00
12:35 AM,35.6,35.6,100,30.24,0.8,Calm,Calm,-,N/A,,Unknown,0,2012-10-11 05:35:00
12:55 AM,35.6,35.6,100,30.24,2.5,Calm,Calm,-,N/A,,Clear,0,2012-10-11 05:55:00
1:15 AM,35.6,35.6,100,30.25,9.0,Calm,Calm,-,N/A,,Clear,0,2012-10-11 06:15:00
1:55 AM,33.8,33.8,100,30.25,3.0,Calm,Calm,-,N/A,,Clear,0,2012-10-11 06:55:00
2:15 AM,33.8,33.8,100,30.25,5.0,Calm,Calm,-,N/A,,Clear,0,2012-10-11 07:15:00
2:55 AM,35.6,35.6,100,30.25,8.0,Calm,Calm,-,N/A,,Clear,0,2012-10-11 07:55:00
3:15 AM,33.8,33.8,100,30.25,9.0,Calm,Calm,-,N/A,,Clear,0,2012-10-11 08:15:00
3:35 AM,33.8,33.8,100,30.24,4.0,Calm,Calm,-,N/A,,Clear,0,2012-10-11 08:35:00
3:55 AM,33.8,33.8,100,30.25,7.0,Calm,Calm,-,N/A,,Clear,0,2012-10-11 08:55:00
4:15 AM,33.8,33.8,100,30.25,10.0,Calm,Calm,-,N/A,,Clear,0,2012-10-11 09:15:00
4:35 AM,33.8,33.8,100,30.25,10.0,Calm,Calm,-,N/A,,Clear,0,2012-10-11 09:35:00
4:55 AM,33.8,33.8,100,30.25,9.0,Calm,Calm,-,N/A,,Clear,0,2012-10-11 09:55:00
5:15 AM,33.8,33.8,100,30.26,6.0,Calm,Calm,-,N/A,,Clear,0,2012-10-11 10:15:00
5:35 AM,33.8,33.8,100,30.26,9.0,Calm,Calm,-,N/A,,Clear,0,2012-10-11 10:35:00
5:55 AM,33.8,32.0,93,30.26,10.0,Calm,Calm,-,N/A,,Clear,0,2012-10-11 10:55:00
6:15 AM,33.8,33.8,100,30.27,10.0,Calm,Calm,-,N/A,,Clear,0,2012-10-11 11:15:00
6:35 AM,32.0,32.0,100,30.27,10.0,Calm,Calm,-,N/A,,Clear,0,2012-10-11 11:35:00
6:55 AM,33.8,33.8,100,30.27,9.0,Calm,Calm,-,N/A,,Clear,0,2012-10-11 11:55:00
7:15 AM,33.8,33.8,100,30.28,7.0,Calm,Calm,-,N/A,,Clear,0,2012-10-11 12:15:00
7:35 AM,35.6,35.6,100,30.28,10.0,Calm,Calm,-,N/A,,Clear,0,2012-10-11 12:35:00
7:55 AM,37.4,37.4,100,30.28,10.0,Calm,Calm,-,N/A,,Clear,0,2012-10-11 12:55:00
8:15 AM,41.0,39.2,93,30.29,10.0,Calm,Calm,-,N/A,,Clear,0,2012-10-11 13:15:00
8:35 AM,44.6,42.8,93,30.29,10.0,Calm,Calm,-,N/A,,Clear,0,2012-10-11 13:35:00
8:55 AM,46.4,42.8,87,30.29,10.0,Calm,Calm,-,N/A,,Clear,0,2012-10-11 13:55:00
9:15 AM,46.4,44.6,93,30.29,10.0,Calm,Calm,-,N/A,,Clear,0,2012-10-11 14:15:00
9:35 AM,50.0,44.6,82,30.29,10.0,Calm,Calm,-,N/A,,Clear,0,2012-10-11 14:35:00
9:55 AM,51.8,46.4,82,30.29,10.0,South,3.5,-,N/A,,Clear,180,2012-10-11 14:55:00
10:15 AM,53.6,46.4,77,30.28,10.0,ESE,3.5,-,N/A,,Clear,120,2012-10-11 15:15:00
10:35 AM,55.4,46.4,72,30.29,10.0,SW,8.1,-,N/A,,Clear,220,2012-10-11 15:35:00
10:55 AM,57.2,46.4,67,30.28,10.0,SSW,6.9,-,N/A,,Clear,210,2012-10-11 15:55:00
11:15 AM,60.8,48.2,63,30.28,10.0,SW,8.1,-,N/A,,Clear,220,2012-10-11 16:15:00
11:35 AM,60.8,46.4,59,30.27,10.0,SW,8.1,-,N/A,,Clear,220,2012-10-11 16:35:00
11:55 AM,62.6,44.6,52,30.27,10.0,SSW,4.6,-,N/A,,Clear,210,2012-10-11 16:55:00
12:15 PM,62.6,44.6,52,30.26,-9999.0,SSW,4.6,-,N/A,,Unknown,200,2012-10-11 17:15:00
12:55 PM,66.2,44.6,46,30.25,10.0,West,6.9,-,N/A,,Clear,260,2012-10-11 17:55:00
1:15 PM,66.2,46.4,49,30.24,10.0,WSW,6.9,-,N/A,,Clear,250,2012-10-11 18:15:00
1:35 PM,68.0,46.4,46,30.24,10.0,WSW,8.1,-,N/A,,Clear,240,2012-10-11 18:35:00
1:55 PM,66.2,46.4,49,30.24,10.0,West,3.5,-,N/A,,Scattered Clouds,280,2012-10-11 18:55:00
2:15 PM,66.2,46.4,49,30.24,10.0,Variable,4.6,-,N/A,,Scattered Clouds,0,2012-10-11 19:15:00
2:35 PM,66.2,48.2,52,30.23,10.0,NW,5.8,-,N/A,,Clear,310,2012-10-11 19:35:00
2:55 PM,68.0,48.2,49,30.23,10.0,Calm,Calm,-,N/A,,Clear,0,2012-10-11 19:55:00
3:15 PM,69.8,48.2,46,30.23,10.0,NNW,6.9,-,N/A,,Partly Cloudy,340,2012-10-11 20:15:00
3:55 PM,66.2,50.0,56,30.23,10.0,Calm,Calm,-,N/A,,Mostly Cloudy,0,2012-10-11 20:55:00
4:15 PM,66.2,48.2,52,30.23,10.0,WNW,4.6,-,N/A,,Mostly Cloudy,290,2012-10-11 21:15:00
5:15 PM,62.6,48.2,59,30.23,10.0,Calm,Calm,-,N/A,,Mostly Cloudy,0,2012-10-11 22:15:00
5:35 PM,62.6,50.0,63,30.23,10.0,Calm,Calm,-,N/A,,Mostly Cloudy,0,2012-10-11 22:35:00
5:55 PM,60.8,51.8,72,30.23,10.0,Calm,Calm,-,N/A,,Mostly Cloudy,0,2012-10-11 22:55:00
6:35 PM,57.2,53.6,88,30.22,10.0,Calm,Calm,-,N/A,,Overcast,0,2012-10-11 23:35:00
6:55 PM,59.0,53.6,82,30.23,10.0,Calm,Calm,-,N/A,,Overcast,0,2012-10-11 23:55:00
7:15 PM,57.2,53.6,88,30.23,10.0,Calm,Calm,-,N/A,,Overcast,0,2012-10-12 00:15:00
7:35 PM,57.2,55.4,94,30.24,10.0,Calm,Calm,-,N/A,,Overcast,0,2012-10-12 00:35:00
8:15 PM,57.2,53.6,88,30.23,10.0,Calm,Calm,-,N/A,,Overcast,0,2012-10-12 01:15:00
8:35 PM,57.2,53.6,88,30.24,10.0,Calm,Calm,-,N/A,,Overcast,0,2012-10-12 01:35:00
8:55 PM,57.2,55.4,94,30.24,10.0,Calm,Calm,-,N/A,,Overcast,0,2012-10-12 01:55:00
9:15 PM,57.2,55.4,94,30.24,10.0,Calm,Calm,-,N/A,,Overcast,0,2012-10-12 02:15:00
9:35 PM,57.2,55.4,94,30.24,10.0,Calm,Calm,-,N/A,,Overcast,0,2012-10-12 02:35:00
9:55 PM,55.4,55.4,100,30.24,10.0,Calm,Calm,-,N/A,,Overcast,0,2012-10-12 02:55:00
10:15 PM,57.2,55.4,94,30.25,10.0,Calm,Calm,-,N/A,,Overcast,0,2012-10-12 03:15:00
10:55 PM,55.4,55.4,100,30.25,10.0,Calm,Calm,-,N/A,,Overcast,0,2012-10-12 03:55:00
11:15 PM,55.4,55.4,100,30.26,10.0,Calm,Calm,-,N/A,,Overcast,0,2012-10-12 04:15:00
11:35 PM,55.4,55.4,100,30.25,10.0,Calm,Calm,-,N/A,,Overcast,0,2012-10-12 04:35:00
11:55 PM,57.2,55.4,94,30.25,10.0,Calm,Calm,-,N/A,,Overcast,0,2012-10-12 04:55:00